TimeEDT,TemperatureF,Dew PointF,Humidity,Sea Level PressureIn,VisibilityMPH,Wind Direction,Wind SpeedMPH,Gust SpeedMPH,PrecipitationIn,Events,Conditions,WindDirDegrees,DateUTC
12:15 AM,38.1,23.7,56,30.07,10.0,Calm,Calm,-,N/A,,Clear,0,2014-03-16 04:15:00
12:35 AM,36.0,23.9,62,30.06,10.0,Calm,Calm,-,N/A,,Clear,0,2014-03-16 04:35:00
12:55 AM,34.2,24.4,68,30.06,10.0,Calm,Calm,-,N/A,,Clear,0,2014-03-16 04:55:00
1:15 AM,32.0,23.5,71,30.08,10.0,Calm,Calm,-,N/A,,Clear,0,2014-03-16 05:15:00
1:35 AM,34.0,23.9,67,30.08,10.0,Calm,Calm,-,N/A,,Clear,0,2014-03-16 05:35:00
2:15 AM,32.9,24.4,71,30.08,10.0,Calm,Calm,-,N/A,,Clear,0,2014-03-16 06:15:00
2:35 AM,34.5,23.9,65,30.08,10.0,Calm,Calm,-,N/A,,Clear,0,2014-03-16 06:35:00
2:55 AM,31.6,23.9,73,30.09,10.0,Calm,Calm,-,N/A,,Clear,0,2014-03-16 06:55:00
3:15 AM,31.5,23.2,71,30.08,10.0,Calm,Calm,-,N/A,,Clear,0,2014-03-16 07:15:00
3:35 AM,30.7,23.4,74,30.08,10.0,Calm,Calm,-,N/A,,Clear,0,2014-03-16 07:35:00
3:55 AM,29.7,23.5,78,30.07,10.0,Calm,Calm,-,N/A,,Clear,0,2014-03-16 07:55:00
4:15 AM,29.7,23.2,77,30.07,10.0,Calm,Calm,-,N/A,,Clear,0,2014-03-16 08:15:00
4:35 AM,29.3,23.7,80,30.07,10.0,Calm,Calm,-,N/A,,Clear,0,2014-03-16 08:35:00
4:55 AM,29.3,23.2,78,30.08,10.0,NE,3.5,-,N/A,,Clear,50,2014-03-16 08:55:00
5:15 AM,31.3,23.9,74,30.08,10.0,Calm,Calm,-,N/A,,Clear,0,2014-03-16 09:15:00
5:35 AM,27.7,22.6,81,30.08,10.0,Calm,Calm,-,N/A,,Clear,0,2014-03-16 09:35:00
5:55 AM,28.6,23.7,82,30.09,10.0,Calm,Calm,-,N/A,,Clear,0,2014-03-16 09:55:00
6:15 AM,30.0,23.9,78,30.09,10.0,Calm,Calm,-,N/A,,Clear,0,2014-03-16 10:15:00
6:35 AM,32.2,24.4,73,30.09,10.0,Calm,Calm,-,N/A,,Clear,0,2014-03-16 10:35:00
6:55 AM,30.4,24.1,77,30.09,10.0,North,3.5,-,N/A,,Clear,360,2014-03-16 10:55:00
7:15 AM,32.5,23.9,70,30.09,10.0,North,3.5,-,N/A,,Clear,360,2014-03-16 11:15:00
7:35 AM,30.6,23.5,75,30.09,10.0,NNE,3.5,-,N/A,,Clear,30,2014-03-16 11:35:00
8:15 AM,34.9,25.3,68,30.11,10.0,NE,5.8,-,N/A,,Clear,40,2014-03-16 12:15:00
8:35 AM,35.4,27.1,72,30.13,10.0,NE,8.1,-,N/A,,Clear,40,2014-03-16 12:35:00
8:55 AM,36.7,27.3,69,30.14,10.0,NNE,8.1,-,N/A,,Clear,30,2014-03-16 12:55:00
9:15 AM,37.2,27.7,68,30.13,10.0,NNE,6.9,-,N/A,,Clear,30,2014-03-16 13:15:00
9:35 AM,37.6,27.9,68,30.13,10.0,NE,8.1,-,N/A,,Clear,40,2014-03-16 13:35:00
9:55 AM,38.7,27.7,65,30.14,10.0,NE,9.2,-,N/A,,Clear,40,2014-03-16 13:55:00
10:15 AM,39.4,27.5,62,30.13,10.0,NE,9.2,-,N/A,,Clear,40,2014-03-16 14:15:00
10:35 AM,39.9,27.5,61,30.13,10.0,NE,8.1,-,N/A,,Clear,40,2014-03-16 14:35:00
10:55 AM,40.3,26.8,59,30.13,10.0,NNE,8.1,-,N/A,,Clear,30,2014-03-16 14:55:00
11:15 AM,40.8,26.8,57,30.12,10.0,ENE,8.1,-,N/A,,Clear,60,2014-03-16 15:15:00
11:35 AM,41.0,26.8,57,30.13,10.0,NNE,8.1,-,N/A,,Clear,20,2014-03-16 15:35:00
11:55 AM,41.2,26.8,57,30.13,10.0,NE,5.8,-,N/A,,Clear,50,2014-03-16 15:55:00
12:15 PM,41.4,26.6,56,30.13,10.0,NE,5.8,-,N/A,,Clear,50,2014-03-16 16:15:00
12:35 PM,41.5,26.6,55,30.13,10.0,NE,3.5,-,N/A,,Clear,50,2014-03-16 16:35:00
12:55 PM,41.2,26.4,56,30.12,10.0,NE,6.9,-,N/A,,Mostly Cloudy,50,2014-03-16 16:55:00
1:15 PM,41.5,26.6,55,30.12,10.0,NE,5.8,-,N/A,,Overcast,40,2014-03-16 17:15:00
1:35 PM,41.2,26.1,55,30.13,10.0,ENE,5.8,-,N/A,,Overcast,60,2014-03-16 17:35:00
1:55 PM,41.5,26.1,54,30.12,10.0,NE,5.8,-,N/A,,Overcast,40,2014-03-16 17:55:00
2:15 PM,41.7,26.6,55,30.12,10.0,NE,6.9,-,N/A,,Overcast,40,2014-03-16 18:15:00
2:55 PM,39.0,30.7,72,30.09,10.0,North,6.9,-,N/A,Rain,Light Rain,360,2014-03-16 18:55:00
3:15 PM,38.7,30.9,74,30.09,10.0,North,6.9,-,N/A,Rain,Rain,360,2014-03-16 19:15:00
3:35 PM,37.6,31.8,80,30.08,10.0,NNE,8.1,-,N/A,,Drizzle,20,2014-03-16 19:35:00
3:55 PM,35.8,31.6,85,30.08,7.0,NE,10.4,-,0.01,Rain,Rain,50,2014-03-16 19:55:00
4:15 PM,33.8,31.1,90,30.08,3.0,NNE,9.2,-,0.02,Rain,Light Rain,20,2014-03-16 20:15:00
4:35 PM,32.5,30.7,93,30.07,1.2,NE,6.9,-,0.03,Snow,Light Snow,50,2014-03-16 20:35:00
4:55 PM,32.4,30.9,94,30.06,1.0,NE,9.2,-,0.03,Snow,Light Snow,50,2014-03-16 20:55:00
5:15 PM,32.0,30.7,95,30.05,0.5,ENE,9.2,-,N/A,Snow,Snow,60,2014-03-16 21:15:00
5:35 PM,32.0,30.7,95,30.04,1.0,NE,9.2,-,N/A,Snow,Light Snow,50,2014-03-16 21:35:00
5:55 PM,32.0,30.4,94,30.04,0.5,NE,6.9,-,N/A,Snow,Light Snow,50,2014-03-16 21:55:00
6:15 PM,32.0,30.2,93,30.04,1.0,NE,6.9,-,N/A,Snow,Light Snow,40,2014-03-16 22:15:00
6:35 PM,32.0,30.2,93,30.02,1.2,ENE,5.8,-,N/A,,Overcast,60,2014-03-16 22:35:00
6:55 PM,31.8,30.2,94,30.03,1.2,NNE,6.9,-,N/A,,Overcast,30,2014-03-16 22:55:00
7:15 PM,31.5,29.8,94,30.01,1.8,NE,8.1,-,N/A,,Overcast,40,2014-03-16 23:15:00
7:35 PM,31.5,29.8,94,30.02,3.0,NNE,4.6,-,N/A,,Overcast,30,2014-03-16 23:35:00
7:55 PM,31.1,29.3,93,30.02,1.2,North,8.1,-,N/A,,Overcast,10,2014-03-16 23:55:00
8:15 PM,30.6,28.8,93,30.02,1.2,NNE,6.9,-,N/A,Snow,Light Snow,30,2014-03-17 00:15:00
8:35 PM,30.0,28.2,93,30.02,0.5,NNE,9.2,-,N/A,Snow,Snow,30,2014-03-17 00:35:00
8:55 PM,29.5,27.7,93,30.02,0.5,NNE,8.1,-,N/A,Snow,Snow,20,2014-03-17 00:55:00
9:15 PM,28.9,27.1,93,30.02,1.5,NNE,8.1,-,N/A,Snow,Light Snow,30,2014-03-17 01:15:00
9:35 PM,28.4,26.6,93,30.01,1.0,NE,9.2,-,N/A,Snow,Snow,40,2014-03-17 01:35:00
9:55 PM,28.2,26.4,93,30.03,1.0,NNE,6.9,-,N/A,Snow,Snow,30,2014-03-17 01:55:00
10:15 PM,27.9,26.1,93,30.02,0.5,NNE,8.1,-,N/A,Snow,Snow,30,2014-03-17 02:15:00
10:35 PM,27.5,25.7,93,30.01,0.8,NNE,9.2,-,N/A,Snow,Snow,20,2014-03-17 02:35:00
10:55 PM,27.5,25.7,93,30.02,0.8,NNE,6.9,-,N/A,Snow,Snow,20,2014-03-17 02:55:00
11:15 PM,27.1,25.3,93,30.01,1.0,NNE,8.1,-,N/A,Snow,Light Snow,30,2014-03-17 03:15:00
11:35 PM,27.1,25.3,93,30.02,1.0,North,5.8,-,N/A,Snow,Snow,10,2014-03-17 03:35:00
11:55 PM,27.0,25.2,93,30.01,1.2,NNE,8.1,-,N/A,Snow,Light Snow,30,2014-03-17 03:55:00